| time (UTC) | temp F | wind direction | speed knots | gust knots | rain 1hr in | rain 24hr in | rain mn in | humidity % | barometer mb |
| 20260507114543 | 35 | 173 | 2.6 | 5.2 | 0.00 | 0.10 | 0.00 | 89 | 1014.2 |
| 20260507113038 | 34 | 179 | 3.5 | 6.1 | 0.00 | 0.10 | 0.00 | 90 | 1014.2 |
| 20260507111535 | 34 | 173 | 1.7 | 4.3 | 0.00 | 0.10 | 0.00 | 91 | 1014.3 |
| 20260507110032 | 33 | 181 | 1.7 | 2.6 | 0.00 | 0.11 | 0.00 | 90 | 1014.5 |
| 20260507104529 | 34 | 153 | 0.9 | 3.5 | 0.00 | 0.11 | 0.00 | 90 | 1014.6 |
| 20260507103029 | 34 | 179 | 1.7 | 3.5 | 0.00 | 0.11 | 0.00 | 90 | 1014.8 |
| 20260507101534 | 34 | 170 | 1.7 | 3.5 | 0.00 | 0.11 | 0.00 | 90 | 1015.0 |
| 20260507100032 | 34 | 174 | 1.7 | 3.5 | 0.00 | 0.11 | 0.00 | 90 | 1015.2 |
| 20260507094523 | 34 | 160 | 1.7 | 4.3 | 0.00 | 0.11 | 0.00 | 90 | 1015.4 |
| 20260507093035 | 34 | 187 | 1.7 | 3.5 | 0.00 | 0.11 | 0.00 | 89 | 1015.8 |
| 20260507091517 | 35 | 186 | 1.7 | 3.5 | 0.00 | 0.11 | 0.00 | 89 | 1015.7 |
| 20260507090025 | 35 | 175 | 1.7 | 4.3 | 0.00 | 0.11 | 0.00 | 88 | 1016.1 |
| 20260507084511 | 37 | 183 | 3.5 | 7.0 | 0.00 | 0.11 | 0.00 | 88 | 1016.3 |
| 20260507083015 | 37 | 190 | 3.5 | 7.0 | 0.00 | 0.11 | 0.00 | 87 | 1016.6 |
| 20260507081506 | 37 | 167 | 4.3 | 8.7 | 0.00 | 0.11 | 0.00 | 87 | 1016.7 |
| 20260507080006 | 38 | 187 | 4.3 | 9.6 | 0.00 | 0.12 | 0.00 | 87 | 1016.9 |
| 20260507074513 | 38 | 193 | 6.1 | 8.7 | 0.00 | 0.12 | 0.00 | 87 | 1016.9 |
| 20260507073002 | 37 | 174 | 3.5 | 6.1 | 0.00 | 0.12 | 0.00 | 88 | 1017.1 |
| 20260507071613 | 38 | 189 | 3.5 | 6.1 | 0.00 | 0.12 | 0.00 | 87 | 1017.2 |
| 20260507070058 | 38 | 200 | 5.2 | 7.8 | 0.00 | 0.13 | 0.00 | 87 | 1017.4 |
| 20260507064558 | 38 | 177 | 4.3 | 8.7 | 0.00 | 0.13 | 0.00 | 88 | 1017.8 |
| 20260507063055 | 38 | 184 | 2.6 | 5.2 | 0.00 | 0.13 | 0.00 | 88 | 1018.0 |
| 20260507061551 | 38 | 192 | 3.5 | 6.1 | 0.00 | 0.13 | 0.00 | 88 | 1017.9 |
| 20260507060049 | 38 | 179 | 3.5 | 7.8 | 0.00 | 0.16 | 0.00 | 88 | 1018.0 |
| 20260507054552 | 39 | 209 | 4.3 | 7.8 | 0.00 | 0.16 | 0.00 | 88 | 1018.3 |
| 20260507053048 | 39 | 195 | 4.3 | 7.8 | 0.00 | 0.16 | 0.00 | 88 | 1018.4 |
| 20260507051544 | 39 | 206 | 3.5 | 7.8 | 0.00 | 0.16 | 0.00 | 88 | 1018.4 |
| 20260507050040 | 38 | 180 | 2.6 | 5.2 | 0.00 | 0.18 | 0.16 | 89 | 1018.6 |
| 20260507044640 | 38 | 190 | 2.6 | 4.3 | 0.00 | 0.18 | 0.16 | 89 | 1018.6 |
| 20260507043040 | 39 | 167 | 1.7 | 4.3 | 0.00 | 0.18 | 0.16 | 88 | 1018.8 |
| 20260507041538 | 39 | 184 | 2.6 | 5.2 | 0.00 | 0.18 | 0.16 | 88 | 1018.8 |
| 20260507040040 | 39 | 179 | 2.6 | 4.3 | 0.00 | 0.23 | 0.16 | 88 | 1019.0 |
| 20260507034535 | 38 | 184 | 1.7 | 3.5 | 0.00 | 0.23 | 0.16 | 88 | 1019.0 |
| 20260507033038 | 38 | 193 | 0.9 | 3.5 | 0.00 | 0.23 | 0.16 | 87 | 1019.1 |
| 20260507031531 | 39 | 219 | 0.9 | 1.7 | 0.00 | 0.23 | 0.16 | 86 | 1019.2 |
| 20260507030032 | 39 | 195 | 0.9 | 2.6 | 0.00 | 0.25 | 0.16 | 85 | 1019.2 |
| 20260507024533 | 40 | 182 | 0.9 | 2.6 | 0.00 | 0.25 | 0.16 | 82 | 1019.0 |
| 20260507023030 | 42 | 176 | 1.7 | 3.5 | 0.00 | 0.25 | 0.16 | 81 | 1019.0 |
| 20260507021528 | 43 | 185 | 1.7 | 2.6 | 0.00 | 0.25 | 0.16 | 79 | 1018.9 |
| 20260507020030 | 44 | 169 | 1.7 | 4.3 | 0.00 | 0.26 | 0.16 | 76 | 1018.7 |
| 20260507014528 | 46 | 163 | 1.7 | 4.3 | 0.00 | 0.26 | 0.16 | 73 | 1018.6 |
| 20260507013035 | 48 | 153 | 2.6 | 5.2 | 0.00 | 0.26 | 0.16 | 72 | 1018.7 |
| 20260507011536 | 49 | 160 | 2.6 | 4.3 | 0.00 | 0.26 | 0.16 | 73 | 1018.8 |
| 20260507010028 | 49 | 153 | 2.6 | 4.3 | 0.00 | 0.26 | 0.16 | 73 | 1018.9 |
| 20260507004525 | 48 | 130 | 1.7 | 4.3 | 0.00 | 0.26 | 0.16 | 73 | 1019.0 |
| 20260507003025 | 50 | 149 | 3.5 | 7.0 | 0.00 | 0.26 | 0.16 | 64 | 1019.0 |
| 20260507001529 | 51 | 184 | 1.7 | 4.3 | 0.00 | 0.26 | 0.16 | 69 | 1019.2 |
| 20260507000024 | 50 | 190 | 1.7 | 5.2 | 0.00 | 0.26 | 0.16 | 68 | 1019.2 |
| 20260506234530 | 51 | 125 | 1.7 | 7.0 | 0.00 | 0.26 | 0.16 | 67 | 1019.4 |
| 20260506233025 | 50 | 115 | 2.6 | 5.2 | 0.01 | 0.26 | 0.16 | 68 | 1019.3 |
| 20260506231524 | 50 | 155 | 1.7 | 4.3 | 0.02 | 0.26 | 0.16 | 69 | 1019.5 |
| 20260506230022 | 48 | 105 | 1.7 | 4.3 | 0.02 | 0.27 | 0.16 | 75 | 1019.5 |
| 20260506224527 | 47 | 88 | 2.6 | 6.1 | 0.02 | 0.27 | 0.16 | 78 | 1019.6 |
| 20260506223020 | 47 | 210 | 3.5 | 8.7 | 0.01 | 0.26 | 0.15 | 72 | 1020.0 |
| 20260506221519 | 48 | 260 | 3.5 | 8.7 | 0.00 | 0.25 | 0.14 | 68 | 1019.8 |
| 20260506220019 | 49 | 271 | 5.2 | 8.7 | 0.00 | 0.26 | 0.14 | 65 | 1019.8 |
| 20260506214519 | 52 | 242 | 3.5 | 5.2 | 0.00 | 0.26 | 0.14 | 58 | 1019.9 |
| 20260506213021 | 52 | 184 | 1.7 | 5.2 | 0.00 | 0.26 | 0.14 | 61 | 1020.2 |
| 20260506211517 | 51 | 152 | 0.9 | 3.5 | 0.00 | 0.26 | 0.14 | 64 | 1020.3 |
| 20260506210012 | 49 | 186 | 0.0 | 4.3 | 0.00 | 0.26 | 0.14 | 65 | 1020.5 |
| 20260506204510 | 49 | 124 | 1.7 | 3.5 | 0.01 | 0.26 | 0.14 | 66 | 1020.7 |
| 20260506203009 | 47 | 85 | 1.7 | 5.2 | 0.05 | 0.26 | 0.14 | 67 | 1020.7 |
| 20260506201508 | 46 | 155 | 1.7 | 6.1 | 0.06 | 0.26 | 0.14 | 79 | 1021.1 |
| 20260506200011 | 45 | 214 | 0.9 | 1.7 | 0.06 | 0.26 | 0.14 | 79 | 1021.2 |
| 20260506194508 | 44 | 338 | 2.6 | 7.0 | 0.05 | 0.25 | 0.13 | 82 | 1021.2 |
| 20260506193006 | 46 | 308 | 7.0 | 9.6 | 0.01 | 0.21 | 0.09 | 78 | 1021.3 |
| 20260506191506 | 49 | 79 | 5.2 | 9.6 | 0.00 | 0.20 | 0.08 | 66 | 1021.1 |
| 20260506190004 | 49 | 151 | 4.3 | 7.8 | 0.00 | 0.23 | 0.08 | 70 | 1021.2 |
| 20260506184603 | 48 | 193 | 1.7 | 5.2 | 0.00 | 0.23 | 0.08 | 72 | 1021.6 |
| 20260506183111 | 47 | 191 | 2.6 | 5.2 | 0.00 | 0.23 | 0.08 | 69 | 1021.7 |
| 20260506181601 | 47 | 214 | 1.7 | 6.1 | 0.00 | 0.23 | 0.08 | 70 | 1021.9 |
| 20260506180057 | 47 | 158 | 2.6 | 6.1 | 0.00 | 0.28 | 0.08 | 74 | 1021.9 |
| 20260506174606 | 46 | 165 | 1.7 | 5.2 | 0.00 | 0.28 | 0.08 | 76 | 1022.0 |
| 20260506173055 | 44 | 197 | 2.6 | 4.3 | 0.00 | 0.28 | 0.08 | 78 | 1022.2 |
| 20260506171548 | 44 | 214 | 2.6 | 5.2 | 0.00 | 0.28 | 0.08 | 79 | 1022.2 |
| 20260506170048 | 44 | 220 | 1.7 | 5.2 | 0.00 | 0.32 | 0.08 | 81 | 1022.2 |
| 20260506164549 | 43 | 226 | 2.6 | 5.2 | 0.00 | 0.32 | 0.08 | 82 | 1021.9 |
| 20260506163057 | 44 | 238 | 1.7 | 7.0 | 0.00 | 0.32 | 0.08 | 82 | 1021.9 |
| 20260506161542 | 44 | 110 | 0.0 | 1.7 | 0.00 | 0.32 | 0.08 | 81 | 1021.8 |
| 20260506160040 | 45 | 261 | 0.0 | 0.0 | 0.00 | 0.32 | 0.08 | 78 | 1021.5 |
| 20260506154541 | 44 | 264 | 0.0 | 1.7 | 0.00 | 0.32 | 0.08 | 81 | 1021.4 |
| 20260506153036 | 44 | 299 | 0.9 | 2.6 | 0.00 | 0.32 | 0.08 | 82 | 1021.0 |
| 20260506151540 | 44 | 291 | 0.0 | 2.6 | 0.00 | 0.32 | 0.08 | 82 | 1021.3 |
| 20260506150032 | 44 | 213 | 0.0 | 2.6 | 0.00 | 0.32 | 0.08 | 85 | 1021.3 |
| 20260506144529 | 43 | 281 | 0.9 | 4.3 | 0.00 | 0.32 | 0.08 | 86 | 1021.4 |
| 20260506143027 | 43 | 259 | 0.9 | 3.5 | 0.00 | 0.32 | 0.08 | 88 | 1021.3 |
| 20260506141522 | 42 | 252 | 0.9 | 4.3 | 0.00 | 0.32 | 0.08 | 89 | 1021.1 |
| 20260506140029 | 42 | 253 | 1.7 | 4.3 | 0.00 | 0.34 | 0.08 | 89 | 1021.0 |
| 20260506134519 | 42 | 269 | 0.9 | 2.6 | 0.00 | 0.34 | 0.08 | 90 | 1020.9 |
| 20260506133020 | 42 | 238 | 0.0 | 2.6 | 0.00 | 0.34 | 0.08 | 91 | 1020.8 |
| 20260506131519 | 41 | 223 | 0.0 | 1.7 | 0.00 | 0.34 | 0.08 | 91 | 1020.7 |
| 20260506130014 | 41 | 224 | 0.0 | 2.6 | 0.00 | 0.34 | 0.08 | 92 | 1020.4 |
| 20260506124511 | 40 | 221 | 0.0 | 0.9 | 0.01 | 0.34 | 0.08 | 93 | 1020.2 |
| 20260506123011 | 40 | 221 | 0.0 | 0.0 | 0.02 | 0.34 | 0.08 | 93 | 1020.0 |
| 20260506121508 | 40 | 217 | 0.0 | 0.9 | 0.02 | 0.34 | 0.08 | 93 | 1019.9 |
| 20260506120011 | 40 | 195 | 0.0 | 0.0 | 0.01 | 0.33 | 0.07 | 93 | 1019.5 |